sat.trackr.live / text

‹ back to catalog

STARLINK-2695

NORAD 48644 · 2021-044G

PAYLOAD ACTIVE UNKNOWN

§ Identity

Operator
Country
US
Launch date
2021-05-26
Launch site
AFETR
Launch vehicle
Mass (kg)
RCS (m²)

Purposes: comms

External: N2YO · Heavens-Above · Gunter

§ Orbital elements

Epoch: 2026-09-12T04:31:17.652000Z

Period
94.01 min
Inclination
53.1607°
Eccentricity
0.0000998
Mean motion
15.31690767 rev/d
Perigee alt
470.1 km
Apogee alt
471.5 km
Semi-major
6,848.9 km
B*
1.4174e-6
RAAN
326.1308°
Arg perigee
68.7548°
Mean anomaly
291.3560°
Rev number
29,240

§ Raw data

STARLINK-26951 48644U 21044G   26255.18839875 -.00000321  00000+0  14174-5 0  99942 48644  53.1607 326.1308 0000998  68.7548 291.3560 15.31690767292405

JSON: /api/v1/satellites/48644 · /tle

For live sub-satellite position, see the globe view (requires WebGL).

§ Visibility from observer

Set your observer location to see the next 7 days of passes ≥ 10°. The values pass through the URL so the page stays shareable.

No JS? Fill the form by hand. The geolocation button needs JavaScript.